[[{"header":{"parameterUnit":"m.s-1","parameterCategory":1,"la1":30.2991,"la2":30.254,"lo1":-89.0895,"lo2":-89.0444,"dy":0.0017,"dx":0.0017,"nx":28,"ny":28,"refTime":"2024-08-02T09:00:00:Z","depth":0,"parameterNumber":2,"parameterNumberName":"U-component_of_WINDS"},"data":[0,0,0,0,0,0,0,0,0,0,0,0,0,0,0,0,0,0,0,0,0,0,0,0,0,0,0,0,0,0,0,0,0,0,0,0,0,0,0,0,0,0,0,0,0,0,0,0,0,0,0,0,0,0,0,0,0,0,3.6611,3.661,0,3.6561,3.656,3.656,3.6421,3.6418,3.6415,3.6412,3.6366,3.6367,3.6369,0,0,0,0,0,0,0,0,0,0,0,0,0,3.659,3.6591,3.6611,3.661,3.661,3.6561,3.656,3.6559,3.6421,3.6418,3.6414,3.641,3.6365,3.6367,3.6369,0,0,0,0,0,0,0,0,0,0,0,0,0,3.6576,3.6592,3.6611,3.6535,3.6527,3.6561,3.656,3.6559,3.6422,3.6418,3.6413,3.6409,3.6365,3.6367,3.6369,3.6475,0,0,3.6377,3.6378,0,0,0,0,0,0,0,0,3.6577,3.6577,3.6546,3.654,3.6532,3.6492,3.6536,3.6531,3.6423,3.6462,3.6412,3.6407,3.6412,3.641,3.6411,3.6472,3.647,3.6377,3.6378,3.6379,3.638,0,0,0,0,0,0,0,3.6578,3.6578,3.6591,3.6546,3.6537,3.6504,3.6497,3.6534,3.6463,3.6458,3.6448,3.6444,3.6407,3.6409,3.6409,3.647,3.6377,3.6379,3.638,3.6381,3.6614,3.6618,0,0,0,0,0,0,3.6589,3.658,3.6593,3.659,3.6543,3.6508,3.65,3.651,3.6462,3.6451,3.6448,3.6438,3.6407,3.6406,3.6407,3.6525,3.6379,3.6381,3.6383,3.6609,3.6615,3.662,0,0,0,0,0,0,3.659,3.6592,3.6595,3.6582,3.658,3.6513,3.6525,3.6511,3.6512,3.6454,3.6441,3.6463,3.6403,3.6403,3.6458,3.6522,3.6382,3.6385,3.6603,3.6611,3.6617,3.6765,0,0,0,0,0,0,3.659,3.6593,3.6631,3.6584,3.6581,3.6646,3.6529,3.6513,3.6516,3.6503,3.6465,3.6454,3.64,3.6455,3.646,3.6522,3.6386,3.6597,3.6607,3.6615,3.6754,3.6776,3.6795,0,0,0,0,0,3.6589,3.6676,3.6634,3.6636,3.6627,3.665,3.6649,3.6583,3.6522,3.6561,3.6523,3.6455,3.6514,3.6462,3.6467,3.6531,3.6593,3.6604,3.6614,3.6745,3.6772,3.6795,0,0,0,0,0,0,3.6735,3.6669,3.6621,3.6695,3.6679,3.6627,3.6673,3.6614,3.6617,3.6604,3.6524,3.6516,3.6582,3.6562,3.6505,3.6629,3.6542,3.6555,3.664,3.6665,3.6685,3.6689,3.6388,0,0,0,0,0,3.6776,3.6798,3.6739,3.681,3.6805,3.6741,3.6748,3.6699,3.668,3.6673,3.6639,3.6625,3.664,3.6651,3.6662,3.6751,3.674,3.6797,3.6817,3.6835,3.6846,3.689,3.6914,3.6655,3.6655,3.6655,0,0,3.686,3.6826,3.6846,3.6839,3.682,3.6847,3.6736,3.6769,3.6787,3.6678,3.6727,3.6702,3.6681,3.6753,3.6783,3.6738,3.6915,3.6848,3.6862,3.6864,3.6904,3.6928,3.695,3.6662,3.6661,3.666,0,0,3.7026,3.7004,3.7059,3.7043,3.7016,3.6973,3.6986,3.6943,3.6921,3.6968,3.6887,3.6909,3.6937,3.6924,3.6922,3.7083,3.702,3.7089,3.7196,3.724,3.726,3.7278,3.7335,3.7356,3.71,3.7101,3.7101,0,3.7135,3.717,3.7096,3.7133,3.7132,3.7033,3.7089,3.7077,3.7057,3.7059,3.7008,3.704,3.7019,3.7085,3.7124,3.7126,3.7139,3.7092,3.7263,3.728,3.7296,3.7349,3.737,3.7109,3.7108,3.7107,3.7106,0,3.7304,3.7329,3.7378,3.7357,3.7362,3.7409,3.7344,3.7358,3.7308,3.727,3.732,3.7291,3.7293,3.7305,3.7258,3.7366,3.7338,3.7277,3.7188,3.733,3.7378,3.7398,3.7121,3.7118,3.7116,3.7113,0,0,3.7562,3.7498,3.7518,3.7506,3.7469,3.7488,3.753,3.753,3.7544,3.7533,3.7566,3.7592,3.7534,3.7531,3.7482,3.7521,3.7649,3.7454,3.7452,3.7491,3.7765,3.781,3.7835,3.7608,3.7611,3.7614,3.7766,0,3.7718,3.7784,3.7719,3.78,3.7822,3.7727,3.7764,3.7746,3.7712,3.7727,3.769,3.7708,3.7632,3.7629,3.7663,3.7626,3.7703,3.7615,3.7639,3.764,3.7646,3.786,3.7909,3.8054,3.7785,3.7788,3.779,0,3.7909,3.7904,3.7987,3.7942,3.7949,3.7983,3.7977,3.7993,3.797,3.7943,3.7939,3.7878,3.7918,3.7831,3.7885,3.7826,3.7832,3.7816,3.782,3.7819,3.7723,3.7865,3.8099,3.812,3.782,3.7817,3.7815,0,3.8088,3.8102,3.8152,3.8146,3.8096,3.8122,3.8103,3.8075,3.8079,3.8075,3.8077,3.8079,3.808,3.8083,3.8024,3.7967,3.8085,3.7994,3.8064,3.8065,3.8092,3.8091,3.833,3.8098,3.8098,3.8098,3.8097,0,3.8269,3.8322,3.8231,3.8262,3.832,3.8244,3.8304,3.8275,3.8251,3.8276,3.8195,3.8221,3.8142,3.8159,3.8114,3.8165,3.8166,3.8145,3.8133,3.8152,3.8155,3.8154,3.8143,3.8103,3.8102,3.8101,3.81,0,3.8477,3.8418,3.8467,3.8415,3.8403,3.8447,3.8403,3.843,3.8391,3.8423,3.8426,3.8365,3.838,3.8322,3.8329,3.8299,3.8373,3.8344,3.838,3.8371,3.8444,3.8437,3.869,3.8719,3.847,3.8473,3.8475,0,3.8596,3.8635,3.8586,3.8595,3.858,3.8597,3.8599,3.8527,3.8534,3.851,3.8541,3.8549,3.8552,3.8582,3.8539,3.8544,3.8514,3.8602,3.8514,3.8532,3.8514,3.8512,3.8515,3.862,3.8623,3.8626,3.8628,0,3.8813,3.8782,3.8788,3.8784,3.8789,3.8783,3.8772,3.8785,3.8707,3.8718,3.8732,3.8735,3.874,3.875,3.8745,3.8727,3.8665,3.8656,3.8672,3.8692,3.8711,3.87,3.8429,3.865,3.8648,3.8646,3.8645,3.8644,3.898,3.9009,3.8979,3.8988,3.8971,3.8962,3.8984,3.8947,3.8956,3.8953,3.8911,3.8933,3.8909,3.8896,3.8884,3.8901,3.886,3.8884,3.889,3.8896,3.8908,3.8709,3.89,3.8899,3.8899,3.8898,3.8898,0,3.9192,3.9167,3.9176,3.9161,3.9169,3.9108,3.9092,3.9103,3.9123,3.9104,3.9108,3.9124,3.9133,3.909,3.9093,3.9115,3.9087,3.9118,3.9116,3.9112,3.8945,3.893,3.9141,3.9141,3.9141,3.9141,3.9141,3.9141,3.9303,3.9349,3.9314,3.935,3.9325,3.9345,3.9341,3.9332,3.9317,3.9337,3.9343,3.9314,3.9286,3.9286,3.9292,3.9279,3.9284,3.9325,3.9303,3.9148,3.9124,3.9102,3.9087,3.9327,3.9327,3.9468,3.9469,3.9471]},{"header":{"parameterUnit":"m.s-1","parameterCategory":1,"la1":30.2991,"la2":30.254,"lo1":-89.0895,"lo2":-89.0444,"dy":0.0017,"dx":0.0017,"nx":28,"ny":28,"refTime":"2024-08-02T09:00:00:Z","depth":0,"parameterNumber":3,"parameterNumberName":"V-component_of_WINDS"},"data":[0,0,0,0,0,0,0,0,0,0,0,0,0,0,0,0,0,0,0,0,0,0,0,0,0,0,0,0,0,0,0,0,0,0,0,0,0,0,0,0,0,0,0,0,0,0,0,0,0,0,0,0,0,0,0,0,0,0,-0.6226,-0.6228,0,-0.6407,-0.6409,-0.6411,-0.65,-0.65,-0.65,-0.65,-0.6689,-0.6694,-0.6699,0,0,0,0,0,0,0,0,0,0,0,0,0,-0.5961,-0.5966,-0.6226,-0.6228,-0.6231,-0.6407,-0.6409,-0.6412,-0.65,-0.65,-0.65,-0.65,-0.6687,-0.6693,-0.6699,0,0,0,0,0,0,0,0,0,0,0,0,0,-0.6103,-0.5967,-0.6226,-0.6296,-0.6304,-0.6406,-0.6409,-0.6412,-0.65,-0.65,-0.65,-0.65,-0.6685,-0.6693,-0.67,-0.6748,0,0,-0.6723,-0.6727,0,0,0,0,0,0,0,0,-0.6095,-0.6112,-0.6283,-0.6291,-0.63,-0.6431,-0.6385,-0.6525,-0.65,-0.6426,-0.65,-0.65,-0.6603,-0.6618,-0.6652,-0.6757,-0.6765,-0.6724,-0.6729,-0.6732,-0.6734,0,0,0,0,0,0,0,-0.6085,-0.6105,-0.6298,-0.6286,-0.6296,-0.632,-0.634,-0.6412,-0.6513,-0.6432,-0.6439,-0.6459,-0.6608,-0.6644,-0.6657,-0.6767,-0.6724,-0.673,-0.6735,-0.6738,-0.6922,-0.6922,0,0,0,0,0,0,-0.6063,-0.6096,-0.6292,-0.6303,-0.6195,-0.6324,-0.6347,-0.6389,-0.6512,-0.6531,-0.6459,-0.6462,-0.6631,-0.6648,-0.6664,-0.6729,-0.6732,-0.6739,-0.6743,-0.6922,-0.6922,-0.6922,0,0,0,0,0,0,-0.6057,-0.608,-0.6285,-0.6202,-0.623,-0.6329,-0.6376,-0.6393,-0.6429,-0.6532,-0.6551,-0.6477,-0.6632,-0.6653,-0.6726,-0.6736,-0.6742,-0.6749,-0.6921,-0.6922,-0.6922,-0.6858,0,0,0,0,0,0,-0.6049,-0.6077,-0.6095,-0.6202,-0.6234,-0.6343,-0.6376,-0.6396,-0.6441,-0.6448,-0.6554,-0.6572,-0.6634,-0.6714,-0.6734,-0.6747,-0.6755,-0.6921,-0.6921,-0.6922,-0.6859,-0.6856,-0.6853,0,0,0,0,0,-0.6039,-0.607,-0.6095,-0.6119,-0.6258,-0.6343,-0.6362,-0.6431,-0.6442,-0.6462,-0.6528,-0.6569,-0.6732,-0.6721,-0.6744,-0.6759,-0.692,-0.6921,-0.6922,-0.6861,-0.6856,-0.6853,0,0,0,0,0,0,-0.5964,-0.6085,-0.6115,-0.6181,-0.6251,-0.6358,-0.6385,-0.6424,-0.6493,-0.6497,-0.6581,-0.6604,-0.667,-0.6722,-0.6708,-0.6813,-0.683,-0.6835,-0.6776,-0.6773,-0.677,-0.6756,-0.6761,0,0,0,0,0,-0.5954,-0.6012,-0.6116,-0.6164,-0.6197,-0.6285,-0.6324,-0.6371,-0.6448,-0.6478,-0.655,-0.6624,-0.6692,-0.6735,-0.6804,-0.6867,-0.6892,-0.6889,-0.6886,-0.6883,-0.6887,-0.6925,-0.6925,-0.6925,-0.6925,-0.6925,0,0,-0.5936,-0.601,-0.6041,-0.6151,-0.621,-0.6269,-0.6309,-0.637,-0.6415,-0.6488,-0.6561,-0.6616,-0.6705,-0.6773,-0.6807,-0.6819,-0.6892,-0.6884,-0.688,-0.6886,-0.6926,-0.6926,-0.6926,-0.6925,-0.6925,-0.6925,0,0,-0.5934,-0.5994,-0.6042,-0.6101,-0.619,-0.6248,-0.6259,-0.6361,-0.64,-0.6474,-0.6531,-0.6587,-0.6702,-0.6762,-0.6808,-0.6829,-0.6869,-0.6849,-0.6832,-0.6869,-0.6869,-0.687,-0.6878,-0.688,-0.6852,-0.6852,-0.6852,0,-0.59,-0.599,-0.6062,-0.6119,-0.6166,-0.6234,-0.6283,-0.6337,-0.6445,-0.6477,-0.6488,-0.6634,-0.6698,-0.6783,-0.6788,-0.6822,-0.6839,-0.6837,-0.6863,-0.6864,-0.6866,-0.6875,-0.6878,-0.6849,-0.6849,-0.685,-0.685,0,-0.5945,-0.6007,-0.6034,-0.6135,-0.6186,-0.6239,-0.6319,-0.6362,-0.6405,-0.6462,-0.6538,-0.6617,-0.6703,-0.6726,-0.6769,-0.6817,-0.6822,-0.6847,-0.6866,-0.6862,-0.6872,-0.6876,-0.6845,-0.6846,-0.6847,-0.6847,0,0,-0.5901,-0.604,-0.6049,-0.6096,-0.62,-0.625,-0.6306,-0.6389,-0.6424,-0.6497,-0.6547,-0.6643,-0.6668,-0.672,-0.677,-0.6802,-0.6815,-0.6824,-0.6827,-0.682,-0.6874,-0.6855,-0.6857,-0.6842,-0.6843,-0.6843,-0.6867,0,-0.5913,-0.6016,-0.6082,-0.616,-0.6218,-0.6284,-0.6334,-0.6403,-0.6458,-0.6517,-0.6579,-0.6646,-0.6672,-0.6704,-0.6739,-0.6805,-0.6827,-0.6805,-0.6891,-0.6894,-0.6868,-0.6863,-0.6843,-0.6861,-0.6871,-0.6872,-0.6872,0,-0.5942,-0.6011,-0.6093,-0.6191,-0.6218,-0.6262,-0.6343,-0.6398,-0.6479,-0.6517,-0.6575,-0.6626,-0.6691,-0.6704,-0.6795,-0.6778,-0.6818,-0.6856,-0.6859,-0.687,-0.6883,-0.6875,-0.6868,-0.6871,-0.6879,-0.6878,-0.6878,0,-0.5902,-0.6016,-0.608,-0.6118,-0.6234,-0.6263,-0.6313,-0.6394,-0.6439,-0.6511,-0.6542,-0.6621,-0.6664,-0.6725,-0.6796,-0.6799,-0.688,-0.6899,-0.6915,-0.6913,-0.693,-0.6928,-0.693,-0.6953,-0.6953,-0.6953,-0.6953,0,-0.5909,-0.5958,-0.6064,-0.6103,-0.616,-0.6236,-0.6291,-0.6346,-0.6418,-0.6471,-0.6532,-0.6581,-0.6672,-0.6732,-0.6789,-0.6856,-0.6875,-0.6909,-0.6923,-0.6904,-0.69,-0.6931,-0.6932,-0.6954,-0.6954,-0.6954,-0.6953,0,-0.5875,-0.5947,-0.6022,-0.6125,-0.6152,-0.6189,-0.6278,-0.632,-0.6378,-0.6445,-0.6465,-0.6557,-0.6631,-0.6708,-0.6809,-0.6847,-0.6913,-0.6932,-0.6885,-0.6893,-0.6905,-0.6903,-0.6928,-0.6936,-0.6952,-0.6952,-0.6952,0,-0.5875,-0.5914,-0.602,-0.6059,-0.6107,-0.617,-0.6216,-0.6293,-0.634,-0.6435,-0.6466,-0.6544,-0.6612,-0.6727,-0.6804,-0.6882,-0.6905,-0.6909,-0.6917,-0.6897,-0.6906,-0.6903,-0.6908,-0.6906,-0.6905,-0.6905,-0.6904,0,-0.5869,-0.5903,-0.5967,-0.6044,-0.6097,-0.6162,-0.6229,-0.6258,-0.6348,-0.6398,-0.6474,-0.6525,-0.6628,-0.6706,-0.6793,-0.6847,-0.6891,-0.6901,-0.6909,-0.6889,-0.686,-0.6877,-0.6877,-0.69,-0.69,-0.6901,-0.6901,-0.6901,-0.5853,-0.589,-0.5971,-0.6041,-0.6099,-0.616,-0.6205,-0.6268,-0.6332,-0.6421,-0.6463,-0.6539,-0.6621,-0.6742,-0.6794,-0.6856,-0.6869,-0.688,-0.6883,-0.6885,-0.6881,-0.6849,-0.6872,-0.6873,-0.6873,-0.6873,-0.6873,0,-0.585,-0.5905,-0.5968,-0.606,-0.6115,-0.615,-0.6226,-0.627,-0.6336,-0.6408,-0.6472,-0.656,-0.6636,-0.6718,-0.68,-0.6834,-0.6856,-0.6853,-0.6851,-0.6863,-0.6864,-0.685,-0.6833,-0.6833,-0.6833,-0.6833,-0.6833,-0.6833,-0.5855,-0.5921,-0.5964,-0.606,-0.6116,-0.6189,-0.623,-0.6288,-0.6345,-0.644,-0.6503,-0.6555,-0.6632,-0.672,-0.6791,-0.6814,-0.6842,-0.6832,-0.686,-0.686,-0.6863,-0.6866,-0.6853,-0.6837,-0.6837,-0.6855,-0.6855,-0.6855]}]]